[[{"header":{"parameterUnit":"m.s-1","parameterCategory":1,"la1":30.2991,"la2":30.254,"lo1":-89.0895,"lo2":-89.0444,"dy":0.0017,"dx":0.0017,"nx":28,"ny":28,"refTime":"2025-05-31T21:00:00:Z","depth":0,"parameterNumber":2,"parameterNumberName":"U-component_of_WINDS"},"data":[0,0,0,0,0,0,0,0,0,0,0,0,0,0,0,0,0,0,0,0,0,0,0,0,0,0,0,0,0,0,0,0,0,0,0,0,0,0,0,0,0,0,0,0,0,0,0,0,0,0,0,0,0,0,0,0,0,0,-0.1376,-0.1375,0,-0.1274,-0.1272,-0.1271,-0.1218,-0.1218,-0.1218,-0.1218,-0.1114,-0.1111,-0.1109,0,0,0,0,0,0,0,0,0,0,0,0,0,-0.153,-0.1527,-0.1377,-0.1375,-0.1374,-0.1274,-0.1272,-0.1271,-0.1218,-0.1218,-0.1218,-0.1218,-0.1115,-0.1112,-0.1108,0,0,0,0,0,0,0,0,0,0,0,0,0,-0.1449,-0.1526,-0.1377,-0.1335,-0.1331,-0.1274,-0.1272,-0.1271,-0.1218,-0.1218,-0.1218,-0.1218,-0.1116,-0.1112,-0.1108,-0.1085,0,0,-0.1095,-0.1094,0,0,0,0,0,0,0,0,-0.1453,-0.1443,-0.1343,-0.1338,-0.1333,-0.1259,-0.1288,-0.1208,-0.1218,-0.1261,-0.1218,-0.1218,-0.1162,-0.1154,-0.1135,-0.108,-0.1076,-0.1095,-0.1093,-0.1091,-0.109,0,0,0,0,0,0,0,-0.1459,-0.1447,-0.1336,-0.1341,-0.1335,-0.1323,-0.1311,-0.1273,-0.1213,-0.1257,-0.1253,-0.1242,-0.1159,-0.1139,-0.1132,-0.1074,-0.1095,-0.1092,-0.1089,-0.1088,-0.0996,-0.0996,0,0,0,0,0,0,-0.1471,-0.1452,-0.1339,-0.1333,-0.1394,-0.132,-0.1307,-0.1283,-0.1214,-0.1203,-0.1242,-0.1239,-0.1146,-0.1137,-0.1129,-0.1097,-0.1091,-0.1087,-0.1085,-0.0996,-0.0996,-0.0996,0,0,0,0,0,0,-0.1474,-0.1461,-0.1343,-0.1391,-0.1375,-0.1318,-0.129,-0.1281,-0.126,-0.1202,-0.1191,-0.1232,-0.1146,-0.1134,-0.1096,-0.1093,-0.1085,-0.1082,-0.0996,-0.0996,-0.0996,-0.1035,0,0,0,0,0,0,-0.1479,-0.1463,-0.1453,-0.1391,-0.1373,-0.1312,-0.129,-0.1279,-0.1253,-0.1249,-0.119,-0.118,-0.1145,-0.1103,-0.1092,-0.1087,-0.1078,-0.0996,-0.0996,-0.0996,-0.1033,-0.1036,-0.1038,0,0,0,0,0,-0.1485,-0.1468,-0.1453,-0.1439,-0.1359,-0.1312,-0.1301,-0.1261,-0.1253,-0.1243,-0.1206,-0.1182,-0.1095,-0.1099,-0.1087,-0.1081,-0.0996,-0.0996,-0.0996,-0.1032,-0.1035,-0.1038,0,0,0,0,0,0,-0.1531,-0.1459,-0.1441,-0.1404,-0.1365,-0.1303,-0.1289,-0.1265,-0.1227,-0.1225,-0.1177,-0.1164,-0.1131,-0.1102,-0.1108,-0.1055,-0.1043,-0.1041,-0.1075,-0.1078,-0.108,-0.1087,-0.1075,0,0,0,0,0,-0.1537,-0.1504,-0.1443,-0.1417,-0.1398,-0.1347,-0.1325,-0.1297,-0.1254,-0.1237,-0.1197,-0.1157,-0.1121,-0.1098,-0.1061,-0.1029,-0.1016,-0.1019,-0.1022,-0.1024,-0.1022,-0.1004,-0.1005,-0.0996,-0.0996,-0.0996,0,0,-0.1549,-0.1506,-0.1488,-0.1425,-0.1391,-0.1358,-0.1333,-0.13,-0.1275,-0.1232,-0.1194,-0.1163,-0.1115,-0.1081,-0.1063,-0.1055,-0.1022,-0.1024,-0.1026,-0.1023,-0.1004,-0.1005,-0.1006,-0.0996,-0.0996,-0.0996,0,0,-0.1553,-0.1517,-0.1491,-0.1458,-0.1406,-0.1373,-0.1367,-0.1309,-0.1287,-0.1248,-0.1215,-0.1186,-0.1124,-0.1092,-0.1067,-0.1061,-0.1038,-0.1051,-0.1063,-0.1045,-0.1046,-0.1046,-0.1044,-0.1044,-0.1049,-0.1049,-0.1049,0,-0.1575,-0.1523,-0.1481,-0.1449,-0.1423,-0.1383,-0.1356,-0.1326,-0.1266,-0.1249,-0.1242,-0.1164,-0.1129,-0.1086,-0.1085,-0.1066,-0.1058,-0.1056,-0.1049,-0.1049,-0.1049,-0.1046,-0.1046,-0.1051,-0.1051,-0.1051,-0.1051,0,-0.1552,-0.1518,-0.1503,-0.1445,-0.1417,-0.1389,-0.1343,-0.132,-0.1295,-0.1263,-0.1224,-0.1181,-0.1135,-0.1123,-0.1098,-0.1077,-0.1074,-0.1059,-0.1045,-0.1052,-0.1049,-0.1048,-0.1054,-0.1053,-0.1053,-0.1052,0,0,-0.1582,-0.1502,-0.1497,-0.1471,-0.1412,-0.1385,-0.1355,-0.131,-0.1291,-0.1252,-0.1226,-0.1175,-0.1161,-0.1133,-0.1105,-0.109,-0.1088,-0.1076,-0.1074,-0.108,-0.1062,-0.1073,-0.1073,-0.1073,-0.1072,-0.1072,-0.1066,0,-0.1578,-0.1521,-0.1483,-0.1441,-0.1409,-0.1371,-0.1346,-0.1307,-0.1277,-0.1246,-0.1213,-0.1177,-0.1161,-0.1144,-0.1128,-0.1092,-0.1084,-0.1092,-0.1048,-0.1047,-0.1061,-0.1071,-0.1083,-0.1079,-0.1064,-0.1064,-0.1064,0,-0.1565,-0.1526,-0.1482,-0.1427,-0.1412,-0.139,-0.1346,-0.1316,-0.1273,-0.1252,-0.1221,-0.1193,-0.1161,-0.1151,-0.1106,-0.1113,-0.1093,-0.1073,-0.1072,-0.1065,-0.1056,-0.1065,-0.1076,-0.1076,-0.1062,-0.1062,-0.1062,0,-0.1591,-0.1528,-0.1493,-0.1472,-0.1407,-0.1392,-0.1365,-0.1321,-0.1297,-0.1259,-0.1243,-0.1202,-0.1179,-0.1149,-0.111,-0.1107,-0.1069,-0.1057,-0.1051,-0.1052,-0.1044,-0.1045,-0.1053,-0.1033,-0.1033,-0.1033,-0.1033,0,-0.159,-0.1565,-0.1504,-0.1482,-0.1453,-0.141,-0.1382,-0.1352,-0.1313,-0.1286,-0.1251,-0.1227,-0.1177,-0.1147,-0.1117,-0.1085,-0.1075,-0.1057,-0.1049,-0.106,-0.1062,-0.1046,-0.1045,-0.1033,-0.1033,-0.1033,-0.1033,0,-0.1613,-0.1572,-0.1531,-0.1474,-0.1459,-0.144,-0.1391,-0.1369,-0.1338,-0.1304,-0.1293,-0.1244,-0.1206,-0.1165,-0.1114,-0.1094,-0.1063,-0.1052,-0.1078,-0.1073,-0.107,-0.1071,-0.1066,-0.1064,-0.1047,-0.1047,-0.1047,0,-0.1615,-0.1595,-0.1535,-0.1514,-0.1487,-0.1454,-0.1429,-0.1386,-0.1362,-0.1311,-0.1296,-0.1256,-0.1221,-0.1163,-0.1123,-0.1084,-0.1072,-0.1073,-0.1066,-0.1077,-0.1071,-0.1073,-0.1071,-0.1075,-0.1075,-0.1076,-0.1076,0,-0.1623,-0.1604,-0.1569,-0.1527,-0.1498,-0.1463,-0.1427,-0.1412,-0.1362,-0.1336,-0.1297,-0.1271,-0.1219,-0.118,-0.1136,-0.1108,-0.1084,-0.1079,-0.1075,-0.1086,-0.1101,-0.1092,-0.1083,-0.1079,-0.1079,-0.1078,-0.1078,-0.1078,-0.1635,-0.1615,-0.157,-0.1533,-0.1501,-0.1468,-0.1445,-0.1411,-0.1377,-0.1331,-0.1308,-0.127,-0.1228,-0.1166,-0.114,-0.111,-0.1102,-0.1097,-0.1096,-0.1095,-0.1098,-0.1107,-0.1102,-0.1101,-0.1101,-0.1101,-0.1101,0,-0.1641,-0.161,-0.1576,-0.1526,-0.1497,-0.1477,-0.1436,-0.1413,-0.138,-0.1342,-0.1309,-0.1265,-0.1227,-0.1184,-0.1144,-0.1128,-0.1116,-0.1119,-0.1119,-0.1114,-0.1107,-0.1114,-0.1129,-0.1129,-0.1129,-0.1129,-0.1129,-0.1129,-0.164,-0.1606,-0.1581,-0.1531,-0.15,-0.1462,-0.144,-0.141,-0.138,-0.1332,-0.1301,-0.1273,-0.1234,-0.119,-0.1155,-0.1144,-0.113,-0.1136,-0.1122,-0.1116,-0.1114,-0.1112,-0.1118,-0.1134,-0.1134,-0.113,-0.1131,-0.1131]},{"header":{"parameterUnit":"m.s-1","parameterCategory":1,"la1":30.2991,"la2":30.254,"lo1":-89.0895,"lo2":-89.0444,"dy":0.0017,"dx":0.0017,"nx":28,"ny":28,"refTime":"2025-05-31T21:00:00:Z","depth":0,"parameterNumber":3,"parameterNumberName":"V-component_of_WINDS"},"data":[0,0,0,0,0,0,0,0,0,0,0,0,0,0,0,0,0,0,0,0,0,0,0,0,0,0,0,0,0,0,0,0,0,0,0,0,0,0,0,0,0,0,0,0,0,0,0,0,0,0,0,0,0,0,0,0,0,0,3.0889,3.0889,0,3.0833,3.0833,3.0832,3.0745,3.0744,3.0742,3.0741,3.0685,3.0685,3.0685,0,0,0,0,0,0,0,0,0,0,0,0,0,3.0922,3.0922,3.0889,3.0889,3.0888,3.0833,3.0833,3.0832,3.0746,3.0744,3.0742,3.074,3.0685,3.0685,3.0685,0,0,0,0,0,0,0,0,0,0,0,0,0,3.0891,3.0922,3.089,3.0838,3.0833,3.0834,3.0833,3.0832,3.0746,3.0744,3.0741,3.0739,3.0685,3.0685,3.0685,3.0731,0,0,3.0685,3.0685,0,0,0,0,0,0,0,0,3.0893,3.089,3.0847,3.0842,3.0836,3.0794,3.0824,3.0798,3.0747,3.0779,3.0741,3.0738,3.0723,3.072,3.0715,3.0729,3.0726,3.0685,3.0685,3.0685,3.0685,0,0,0,0,0,0,0,3.0895,3.0892,3.0867,3.0846,3.084,3.0818,3.0811,3.0818,3.0765,3.0776,3.077,3.0764,3.072,3.0715,3.0713,3.0726,3.0685,3.0685,3.0685,3.0685,3.0773,3.0775,0,0,0,0,0,0,3.0905,3.0895,3.0869,3.0866,3.0859,3.082,3.0812,3.081,3.0765,3.0756,3.0766,3.076,3.0716,3.0713,3.071,3.076,3.0685,3.0685,3.0685,3.077,3.0773,3.0776,0,0,0,0,0,0,3.0906,3.0904,3.0871,3.0878,3.0872,3.0822,3.082,3.081,3.0805,3.0757,3.0747,3.0771,3.0714,3.071,3.0726,3.0757,3.0685,3.0685,3.0767,3.0771,3.0774,3.086,0,0,0,0,0,0,3.0907,3.0904,3.0922,3.0879,3.0872,3.0888,3.0822,3.0811,3.0805,3.0796,3.0759,3.075,3.0712,3.0727,3.0726,3.0755,3.0685,3.0764,3.0769,3.0773,3.0855,3.0867,3.0877,0,0,0,0,0,3.0909,3.0949,3.0923,3.092,3.0893,3.089,3.0886,3.0841,3.0808,3.0824,3.0793,3.0752,3.0754,3.0729,3.0728,3.0757,3.0762,3.0768,3.0773,3.085,3.0864,3.0876,0,0,0,0,0,0,3.0997,3.0942,3.0913,3.0941,3.0921,3.0876,3.0895,3.0858,3.0847,3.084,3.0785,3.0777,3.0799,3.078,3.0753,3.0799,3.0751,3.0757,3.081,3.0824,3.0835,3.0838,3.0685,0,0,0,0,0,3.102,3.1022,3.0974,3.1003,3.0994,3.0947,3.0944,3.091,3.0888,3.0879,3.0849,3.0829,3.0825,3.0823,3.0817,3.0852,3.0841,3.0871,3.0882,3.0892,3.0897,3.0911,3.0924,3.0793,3.0793,3.0793,0,0,3.1066,3.1037,3.1042,3.102,3.1,3.1004,3.094,3.0947,3.0948,3.088,3.0892,3.087,3.0844,3.0869,3.0878,3.0853,3.093,3.0899,3.0906,3.0906,3.0918,3.0931,3.0942,3.0797,3.0796,3.0795,0,0,3.1153,3.1131,3.1152,3.1133,3.1104,3.1072,3.1077,3.1038,3.102,3.1031,3.0979,3.0981,3.0975,3.0958,3.0949,3.1027,3.0988,3.1027,3.1084,3.1099,3.1109,3.1118,3.1145,3.1155,3.1032,3.1032,3.1033,0,3.1214,3.1217,3.1167,3.1176,3.1168,3.1105,3.1125,3.111,3.1081,3.1076,3.1049,3.1039,3.1018,3.1036,3.1055,3.105,3.1054,3.103,3.1112,3.112,3.1128,3.1152,3.1163,3.1037,3.1037,3.1036,3.1036,0,3.1293,3.1296,3.1316,3.1288,3.1282,3.1297,3.1249,3.1249,3.1216,3.1187,3.1199,3.117,3.1156,3.1158,3.1127,3.1172,3.1157,3.1122,3.1073,3.1146,3.1168,3.1177,3.1044,3.1042,3.1041,3.104,0,0,3.1433,3.1377,3.1385,3.1371,3.1334,3.1335,3.1347,3.1332,3.1332,3.1314,3.1322,3.1318,3.1284,3.1274,3.124,3.1253,3.1315,3.1215,3.1214,3.1234,3.1361,3.1387,3.1399,3.1289,3.1291,3.1292,3.1363,0,3.1511,3.1527,3.1482,3.1509,3.151,3.1451,3.1461,3.1439,3.1412,3.1409,3.1379,3.1376,3.1333,3.1326,3.1336,3.1305,3.134,3.13,3.1295,3.1295,3.1302,3.1411,3.1439,3.1507,3.1372,3.1373,3.1374,0,3.1604,3.1589,3.1616,3.1576,3.1575,3.1584,3.1566,3.1565,3.1538,3.1518,3.1505,3.1465,3.1473,3.1427,3.1437,3.1411,3.1406,3.1391,3.1392,3.1389,3.1338,3.1409,3.1528,3.1538,3.1388,3.1386,3.1385,0,3.1701,3.1688,3.1702,3.1692,3.1646,3.1654,3.1636,3.1607,3.1601,3.1585,3.158,3.1567,3.1559,3.1549,3.1506,3.1477,3.1521,3.1471,3.1503,3.1504,3.1514,3.1514,3.1632,3.1514,3.1513,3.1513,3.1513,0,3.1791,3.181,3.1745,3.1754,3.1772,3.1721,3.1741,3.1716,3.1691,3.1693,3.1642,3.1645,3.1589,3.1586,3.1553,3.1565,3.1562,3.1545,3.1536,3.1549,3.1551,3.1544,3.1538,3.1516,3.1515,3.1515,3.1514,0,3.1903,3.186,3.1871,3.1826,3.1816,3.1831,3.1793,3.1799,3.1768,3.1772,3.1769,3.1722,3.1715,3.1671,3.1656,3.1633,3.1657,3.1639,3.1666,3.166,3.1693,3.169,3.181,3.1823,3.1698,3.1699,3.17,0,3.1962,3.1975,3.1931,3.1929,3.1912,3.1909,3.1902,3.1852,3.1847,3.1817,3.1826,3.1816,3.1804,3.1797,3.1761,3.1748,3.1728,3.1771,3.1726,3.1738,3.1727,3.1726,3.1727,3.1781,3.1783,3.1784,3.1785,0,3.2073,3.2051,3.2042,3.2026,3.2019,3.2004,3.1986,3.1987,3.1931,3.1928,3.192,3.1911,3.1894,3.1884,3.1865,3.1845,3.1806,3.18,3.1806,3.1819,3.1833,3.1824,3.1691,3.1797,3.1796,3.1795,3.1794,3.1794,3.2159,3.2167,3.2137,3.2128,3.2109,3.2093,3.2096,3.2065,3.2058,3.204,3.2011,3.2007,3.1979,3.1949,3.1933,3.1929,3.1906,3.1916,3.1918,3.1921,3.1927,3.1835,3.1926,3.1925,3.1925,3.1924,3.1924,0,3.2265,3.2242,3.2236,3.2211,3.2205,3.2168,3.2145,3.2142,3.214,3.2117,3.2107,3.2097,3.2087,3.2049,3.2035,3.2039,3.202,3.2037,3.2035,3.2031,3.1949,3.1944,3.2052,3.2052,3.2052,3.2052,3.2052,3.2052,3.2319,3.233,3.2304,3.2305,3.2282,3.2278,3.2268,3.2253,3.2234,3.2226,3.2216,3.2192,3.2163,3.2146,3.2134,3.2123,3.212,3.2142,3.2125,3.2049,3.2037,3.2025,3.202,3.2142,3.2142,3.2207,3.2208,3.2208]}]]